Regional Weather Roundup
Issued by NWS

Home | Current Version | Previous Version | Graphics & Text | Print | Product List | Glossary On
Versions: 1 2 3 4 5 6 7 8 9 10 11 12 13 14 15 16 17 18 19 20 21 22 23 24 25 26 27 28 29 30 31 32 33 34 35 36 37 38 39 40 41 42 43 44 45 46 47 48 49 50
000
ASUS43 KFSD 250510
RWRSD

WEATHER ROUNDUP FOR SOUTH DAKOTA
NATIONAL WEATHER SERVICE SIOUX FALLS SD
1200 AM CDT MON MAY 25 2015

NOTE: "FAIR" INDICATES FEW OR NO CLOUDS BELOW 12,000 FEET WITH NO
SIGNIFICANT WEATHER AND/OR OBSTRUCTIONS TO VISIBILITY.


SDZ001>005-009-010-012>017-250600-
NORTHWEST AND NORTH CENTRAL SOUTH DAKOTA

CITY           SKY/WX    TMP DP  RH WIND       PRES   REMARKS
BUFFALO          N/A     53  50  89 NE12      29.82F
FAITH            N/A     54  52  93 NE6       29.88R
MOBRIDGE       LGT RAIN  58  58 100 NE9       29.83F
$$

SDZ012>016-024>037-041>051-057-063-072>074-250600-
SOUTHWEST AND SOUTH CENTRAL SOUTH DAKOTA

CITY           SKY/WX    TMP DP  RH WIND       PRES   REMARKS
RAPID CTY ARPT CLOUDY    53  52  96 N9        29.87F
PIERRE         CLOUDY    57  56  96 E5        29.80F FOG
CUSTER         CLOUDY    47  45  93 NE10      29.90F
ELLSWORTH AFB  FOG       54  54 100 N9        29.87  VSB 1/4
PHILIP         CLOUDY    57  56  96 NE7       29.83S
PINE RIDGE     CLOUDY    55  53  93 CALM      29.83F
SPEARFISH      FOG       50  50 100 NE5       29.91F VSB 1
WINNER         FOG       59  57  93 E5        29.81F VSB 1/4
$$

SDZ004>011-016>023-039-040-250600-
NORTHEAST SOUTH DAKOTA

CITY           SKY/WX    TMP DP  RH WIND       PRES   REMARKS
ABERDEEN       RAIN      58  56  93 N6        29.83F FOG
WATERTOWN      LGT RAIN  57  55  93 E10       29.79F
BROOKINGS      CLOUDY    57  55  94 E3        29.80R
SISSETON         N/A     57  57 100 E9        29.81F
$$

SDZ017-020-022-023-036>040-048>070-250600-
SOUTHEAST SOUTH DAKOTA

CITY           SKY/WX    TMP DP  RH WIND       PRES   REMARKS
SIOUX FALLS    CLOUDY    59  58  96 NW5       29.77R
HURON          CLOUDY    58  57  97 NE5       29.79F
CHAMBERLAIN    CLOUDY    58  57  99 CALM      29.81R
MITCHELL       CLOUDY    60  59  96 N3        29.80S FOG
YANKTON        CLOUDY    61  59  94 W5        29.78S
$$

ABBREVIATIONS USED IN REMARKS
   TC - TEMPERATURE IN CELSIUS
  WCI - WIND CHILL INDEX
   HX - HEAT INDEX
  VSB - VISIBILITY



USA.gov is the U.S. government's official web portal to all federal, state and local government web resources and services.